Regional Weather Roundup
Issued by NWS

Home | Current Version | Previous Version | Text Only | Print | Product List | Glossary On
Versions: 1 2 3 4 5 6 7 8 9 10 11 12 13 14 15 16 17 18 19 20 21 22 23 24 25 26 27 28 29 30 31 32 33 34 35 36 37 38 39 40 41 42 43 44 45 46 47 48 49 50
000
ASUS42 KTBW 311110
RWRFL
FLORIDA REGIONAL WEATHER ROUNDUP
NATIONAL WEATHER SERVICE TAMPA BAY RUSKIN FL
700 AM EDT SUN AUG 31 2014

NOTE: "FAIR" INDICATES FEW OR NO CLOUDS BELOW 12,000 FEET WITH NO
SIGNIFICANT WEATHER AND/OR OBSTRUCTIONS TO VISIBILITY.


FLZ001>010-012>015-112-114-115-311200-
PANHANDLE FLORIDA

CITY           SKY/WX    TMP DP  RH WIND       PRES   REMARKS
PENSACOLA      PTCLDY    78  77  96 CALM      30.08R
PENSACOLA NAS  PTCLDY    82  78  88 S6        30.08R
MILTON NAS     CLEAR     75  72  90 NE3       30.10R FOG
CRESTVIEW      PTCLDY    74  74 100 E3        30.12R FOG
DUKE FIELD     FAIR      76  76 100 E6        30.11R
VALPARAISO     MOCLDY    80  78  91 E5        30.10R
MARY ESTHER    MOCLDY    83  74  75 N2        30.08R
TRI COUNTY     FAIR      74  73  97 CALM      30.14R FOG
PANAMA CITY    FAIR      77  74  90 NE5       30.10R FOG
TYNDALL AFB    MOCLDY    78  78 100 E5        30.11R
APALACHICOLA   PTCLDY    78  75  90 NE3       30.10R

STATION/POSITION SKY/WX   TEMP    WIND        PRES    WAVE   SWELL
                          AIR SEA DIR/SP/G            HT/PER HT/PER
                          (F)     (DEG/KT/KT) (MB)    (FT/S) (FT/S)
30.1N   87.6W              85 85  170/  6/  8 1018.2R   3/ 6   3/ 6
29.2N   88.2W              84 85  130/ 10/ 12 1018.1R
28.8N   86.0W              84 86  120/ 10/ 12 1018.2R   4/ 7   3/ 7
PANAMA CITY BEAC           80 86   80/  5/  8 1019.2S
CAPE SAN BLAS    NOT AVBL
TOWER C                    83     110/  7/  8 1019.4R
28.5N   84.5W              84 86  110/ 10/ 12 1018.8R   3/ 5   2/ 5

$$
FLZ011-016>038-118-127-128-134-139-239-311200-
NORTH FLORIDA

CITY           SKY/WX    TMP DP  RH WIND       PRES   REMARKS
MARIANNA       PTCLDY    74  74 100 S5        30.12R
TALLAHASSEE    CLOUDY    76  72  87 CALM      30.14R
PERRY          CLOUDY    72  72 100 CALM      30.15R
CROSS CITY       N/A     73  71  93 VRB3      30.13R
LAKE CITY        N/A     70  70 100 CALM      30.14S FOG
GAINESVILLE    CLEAR     71  70  96 CALM      30.15R
MAYPORT NAS    CLEAR     77  72  84 VRB3      30.15R
JACKSONVILLE   PTCLDY    73  72  96 CALM      30.14R
JAX NAS        MOCLDY    79  71  76 NW5       30.15R
JAX CRAIG      CLEAR     76  71  85 NW7       30.15R
JAX CECIL      CLEAR     70  68  94 CALM      30.14S
FERNANDINA BEA FAIR      77  70  78 NW5       30.13R
ST AUGUSTINE   CLEAR     75  72  90 NW5       30.16R

STATION/POSITION SKY/WX   TEMP    WIND        PRES    WAVE   SWELL
                          AIR SEA DIR/SP/G            HT/PER HT/PER
                          (F)     (DEG/KT/KT) (MB)    (FT/S) (FT/S)
SHELL POINT                80      CALM  /  2   N/A
KEATON BEACH               73      30/  4/  6 1020.6R
CEDAR KEY                  75      40/  5/  7 1020.3R
FERNANDINA                 77 85  300/  4/  7 1020.3R
30.7N   81.3W                 84                N/A     2/10   2/11
MAYPORT                    77 85  300/  6/  7   N/A
31.4N   80.9W              83 84  260/ 14/ 16 1020.4R   2/11   2/11
ST AUGUSTINE               76     330/  5/  6 1021.6R

$$
FLZ040-043>046-052-053-057-058-063-144-311200-
INTERIOR CENTRAL FLORIDA

CITY           SKY/WX    TMP DP  RH WIND       PRES   REMARKS
OCALA          CLEAR     73  72  94 N5        30.15R
LEESBURG       CLEAR     76  73  91 NE5       30.14R
SANFORD        CLEAR     76  74  93 NE3       30.13R
ORLANDO EXEC   CLEAR     77  74  90 E6        30.12S
ORLANDO INTL   PTCLDY    77  75  93 E3        30.13R
KISSIMMEE      CLEAR     77  77 100 CALM      30.13
WINTER HAVEN   CLEAR     76  73  91 E5        30.13R
LAKELAND       CLEAR     73  73 100 CALM      30.13R
BARTOW         FAIR      73 N/A N/A E5        30.13R
OKEECHOBEE       N/A     72  72 100 MISG        N/A

$$
FLZ041-047-054-059-064-141-147-311200-
EAST CENTRAL FLORIDA

CITY           SKY/WX    TMP DP  RH WIND       PRES   REMARKS
ORMOND BEACH   CLEAR    N/A N/A N/A CALM      30.14
DAYTONA BEACH  PTCLDY    75  74  96 NE3       30.14R
DELAND         SUNNY     73  73 100 CALM      30.15R
NEW SMYRNA BEA CLEAR     77  75  94 CALM      30.14
JFK SPACE CTR  CLEAR     73  72  96 CALM      30.13R
TITUSVILLE     PTCLDY    73  72  94 CALM      30.13
CAPE CANAVERAL CLEAR     72  71  96 CALM      30.12R
PATRICK AFB    CLEAR     81  75  82 NE2       30.12S
MELBOURNE      CLEAR     76  72  87 CALM      30.12R
VERO BEACH     CLEAR     74  63  68 CALM      30.12R
FT PIERCE      CLEAR     75  72  90 CALM      30.12R
STUART         PTCLDY    77  73  88 CALM      30.12S

STATION/POSITION SKY/WX   TEMP    WIND        PRES    WAVE   SWELL
                          AIR SEA DIR/SP/G            HT/PER HT/PER
                          (F)     (DEG/KT/KT) (MB)    (FT/S) (FT/S)
28.5N   80.2W              83 83  150/  2/  2 1020.3R
28.9N   78.5W              82 83  200/  4/  6 1021.1R   3/ 9   3/ 9
TRIDENT PIER               79 85   90/  1/  2 1019.5S
28.4N   80.5W                 83                N/A     2/10
27.6N   80.2W                 84                N/A     2/ 7

$$
FLZ050-056-061-142-242-148-248-149-249-151-251-155-255-
160-260-311200-
WEST CENTRAL FLORIDA

CITY           SKY/WX    TMP DP  RH WIND       PRES   REMARKS
CRYSTAL RIVER  FAIR      73  72  94 CALM      30.13R
INVERNESS      FAIR      72  72 100 CALM      30.14R
BROOKSVILLE    CLEAR     73  71  93 CALM      30.13R
ZEPHYRHILLS    FAIR      68  66  94 CALM      30.13R
CLEARWATER     CLEAR     79  75  87 E6        30.10R
TAMPA INTL     CLEAR     76  71  85 CALM      30.12R
TAMPA EXEC     CLEAR     73  70  88 CALM      30.12R
PLANT CITY     CLEAR     73 N/A N/A E3        30.14R
MACDILL AFB    CLEAR     76  76 100 E5        30.11R
ST PETERSBURG  CLEAR     79  75  87 SE7       30.09R
SARASOTA       CLEAR     76  74  93 E6        30.08S
VENICE           N/A    N/A N/A N/A MISG        N/A

STATION/POSITION SKY/WX   TEMP    WIND        PRES    WAVE   SWELL
                          AIR SEA DIR/SP/G            HT/PER HT/PER
                          (F)     (DEG/KT/KT) (MB)    (FT/S) (FT/S)
CEDAR KEY                  75      40/  5/  7 1020.3R
28.5N   84.5W              84 86  110/ 10/ 12 1018.8R   3/ 5   2/ 5
27.3N   84.3W                 87                N/A     3/ 6
CLEARWATER BEACH           79 87   40/  3/  5 1019.0R
MIDDLE TAMPA BAY           78     110/  6/  8 1019.6R
VENICE                     76 87   70/  6/  8 1018.6S

$$
FLZ066-069-070-075>078-162-262-165-265-311200-
SOUTHWEST FLORIDA AND KEYS

CITY           SKY/WX    TMP DP  RH WIND       PRES   REMARKS
PUNTA GORDA    CLEAR     76  74  93 E5        30.12R
FT MYERS       CLEAR     78  76  93 E6        30.09R
SOUTHWEST INTL CLEAR     75  74  96 E8        30.09S
NAPLES         CLEAR     78  75  90 E8        30.08R
MARCO ISLAND   SUNNY     77  75  94 NE5       30.08R
MARATHON       CLOUDY    78  77  96 E6        30.06S
KEY WEST NAS   PTCLDY    84  75  74 E14       30.05R
KEY WEST INTL  LGT RAIN  81  73  76 E8G25     30.05R

STATION/POSITION SKY/WX   TEMP    WIND        PRES    WAVE   SWELL
                          AIR SEA DIR/SP/G            HT/PER HT/PER
                          (F)     (DEG/KT/KT) (MB)    (FT/S) (FT/S)
VENICE                     76 87   70/  6/  8 1018.6S
NAPLES                     78      70/  4/  7 1019.0S
DRY TORTUGAS               85     110/ 19/ 21 1016.7R
NW FL BAY                  86      90/ 10/ 13 1018.0R
SAND KEY                   84     110/ 16/ 17 1017.3R
SOMBRERO KEY               83      80/ 11/ 12 1018.5F
LONG KEY                   85 86  110/ 14/ 15 1018.6R
MOLASSES REEF              84 87  100/ 10/ 12 1018.5R

$$
FLZ067-068-071>074-168-172>174-311200-
SOUTHEAST FLORIDA

CITY           SKY/WX    TMP DP  RH WIND       PRES   REMARKS
W PALM BEACH   MOCLDY    82  77  84 E3        30.10R
FT LAUDER-EXEC CLEAR     82  76  81 E6        30.10R
FT LAUDERDALE  PTCLDY    84  76  76 E10       30.09R
POMPANO BEACH    N/A     85  73  67 E9        30.10R
PEMBROKE PINES PTCLDY    80  73  79 NE3       30.11R
OPA LOCKA      PTCLDY    79  72  79 NE3       30.10R
MIAMI          PTCLDY    82  74  76 NE3       30.10R
WEST KENDALL   CLEAR     80  72  76 NE3       30.09R
HOMESTEAD      CLEAR     82  74  74 E6        30.08S

STATION/POSITION SKY/WX   TEMP    WIND        PRES    WAVE   SWELL
                          AIR SEA DIR/SP/G            HT/PER HT/PER
                          (F)     (DEG/KT/KT) (MB)    (FT/S) (FT/S)
PORT EVERGLADES            85      70/  8/ 11 1019.0
VIRGINIA KEY               85 87  100/  8/ 11   N/A
LAKE WORTH                 84 87   90/  8/ 10 1019.2R
FOWEY ROCKS                85 87  100/ 12/ 13 1019.2R
SETTLEMENT POINT           83     110/  9/ 10 1020.4R

$$




USA.gov is the U.S. government's official web portal to all federal, state and local government web resources and services.